📊 Raw Sensor Data
Showing records 41526 to 41550 of 84,984 total
| ID | Distance (ft) | Battery V | Battery A | Int Temp (°F) | Int Humid (%) | Ext Temp (°F) | Solar V | RSSI | SNR | Time Stamp |
|---|---|---|---|---|---|---|---|---|---|---|
| 43471 | 15.8 | 4.00 | 0 | 75 | 42 | 77 | 5.10 | -67 | 8 | 06/14/2025 10:45 AM |
| 43470 | 15.7 | 4.00 | 0 | 73 | 42 | 76 | 5.10 | -66 | 8 | 06/14/2025 10:30 AM |
| 43469 | 15.7 | 4.00 | 0 | 70 | 43 | 69 | 5.10 | -67 | 8 | 06/14/2025 10:00 AM |
| 43468 | 15.4 | 4.00 | 0 | 70 | 43 | 68 | 5.10 | -67 | 8 | 06/14/2025 09:45 AM |
| 43467 | 15.7 | 4.00 | 0 | 69 | 43 | 73 | 5.10 | -68 | 8 | 06/14/2025 09:30 AM |
| 43466 | 15.7 | 4.00 | 0 | 68 | 43 | 73 | 5.10 | -67 | 8 | 06/14/2025 09:15 AM |
| 43465 | 15.7 | 4.00 | 0 | 65 | 43 | 69 | 5.10 | -68 | 8 | 06/14/2025 08:45 AM |
| 43464 | 15.7 | 4.00 | 0 | 64 | 43 | 68 | 5.10 | -70 | 8 | 06/14/2025 08:30 AM |
| 43463 | 15.7 | 4.00 | 0 | 63 | 43 | 66 | 5.10 | -69 | 7 | 06/14/2025 08:15 AM |
| 43462 | 15.7 | 4.00 | 0 | 62 | 42 | 66 | 5.10 | -68 | 8 | 06/14/2025 08:00 AM |
| 43461 | 15.7 | 4.00 | 0 | 60 | 41 | 63 | 5.10 | -67 | 9 | 06/14/2025 07:30 AM |
| 43460 | 15.7 | 4.02 | 29 | 57 | 40 | 65 | 4.50 | -69 | 7 | 06/14/2025 07:15 AM |
| 43459 | 15.6 | 4.00 | -10 | 54 | 41 | 63 | 4.50 | -67 | 8 | 06/14/2025 07:00 AM |
| 43458 | 15.5 | 4.02 | 0 | 51 | 41 | 57 | 4.50 | -67 | 8 | 06/14/2025 06:45 AM |
| 43457 | 15.4 | 3.98 | -5 | 48 | 42 | 51 | 4.50 | -66 | 8 | 06/14/2025 06:15 AM |
| 43456 | 15.4 | 3.85 | -19 | 48 | 42 | 50 | 4.20 | -67 | 9 | 06/14/2025 06:00 AM |
| 43455 | 15.4 | 3.86 | -9 | 48 | 43 | 49 | 1.70 | -68 | 8 | 06/14/2025 05:45 AM |
| 43454 | 15.4 | 3.87 | -5 | 47 | 43 | 49 | 1.10 | -68 | 8 | 06/14/2025 05:30 AM |
| 43453 | 15.4 | 3.87 | -5 | 49 | 42 | 50 | 0.00 | -68 | 7 | 06/14/2025 05:15 AM |
| 43452 | 15.4 | 3.88 | -5 | 49 | 43 | 51 | 0.10 | -67 | 8 | 06/14/2025 05:00 AM |
| 43451 | 15.4 | 3.87 | -5 | 49 | 43 | 51 | 0.00 | -67 | 8 | 06/14/2025 04:45 AM |
| 43450 | 15.4 | 3.99 | -5 | 50 | 42 | 51 | 0.00 | -67 | 8 | 06/14/2025 04:30 AM |
| 43449 | 15.4 | 3.88 | -5 | 50 | 43 | 52 | 0.00 | -68 | 8 | 06/14/2025 04:15 AM |
| 43448 | 15.4 | 3.87 | -5 | 50 | 43 | 51 | 0.00 | -67 | 8 | 06/14/2025 04:00 AM |
| 43447 | 15.4 | 3.99 | -5 | 50 | 43 | 52 | 0.00 | -67 | 8 | 06/14/2025 03:45 AM |